Language: 


Des rapports , des résumés tant et plus, au choix de chacun....


Données statistiques de la station
Quotidien Rapport Janvier 29, 2017 Unités:  Anglais    Métrique   les deux
« Précédent Jour
Suivant Jour »
Quotidien Hebdomadaire Mensuel Annuel Actuel
  Haut: Bas: Moyen:
Température: 47.3 °F 32 °F 40.8 °F
Pt de rosée: 43.2 °F 35.2 °F 39.4 °F
Humidité: 98 % 0 % 94 %
Vitesse du vent: 20.1 mph 0 mph 7.2 mph
Rafales: 23.5 mph - -
Vent:- - SSW
Pression: 30.1 in 0 in -
Précipitation: 0.29 in    
Historical Graphs
 
 
Données statistiques pour Janvier 29, 2017
Heure Température Point de rosée Pression Vent Vitesse du vent Refales Humidité Pluie (taux horaire)
00:04 39.2 °F 38.1 °F 30 in Calm   6.3 mph 96 % 0 in
00:09 39.2 °F 38.1 °F 30 in SSW 6.3 mph 6.5 mph 96 % 0 in
00:14 39.4 °F 38.5 °F 30 in South 5.8 mph 6.7 mph 96 % 0 in
00:19 39.4 °F 38.5 °F 30 in SSW 4 mph 7.2 mph 96 % 0 in
00:24 39.2 °F 38.1 °F 30 in South 5.8 mph 7.2 mph 96 % 0 in
00:30 39.2 °F 38.1 °F 30 in South 7.4 mph 7.4 mph 96 % 0 in
00:35 39.2 °F 38.1 °F 30 in South 4.3 mph 7.8 mph 96 % 0 in
00:40 39.2 °F 38.1 °F 30 in SSW 4.3 mph 8.7 mph 96 % 0 in
00:45 39.4 °F 38.5 °F 30 in SSW 2.9 mph 8.7 mph 96 % 0 in
00:51 39.4 °F 38.5 °F 30 in South 1.1 mph 7.6 mph 96 % 0 in
00:56 39.4 °F 38.5 °F 30 in South 3.1 mph 6.3 mph 96 % 0 in
01:01 39.2 °F 38.1 °F 30 in South 5.6 mph 6.7 mph 96 % 0 in
01:06 39.2 °F 38.1 °F 30 in SSW 4.3 mph 6.7 mph 96 % 0 in
01:11 39.2 °F 38.1 °F 30 in SSW 4.3 mph 6.5 mph 96 % 0 in
01:16 39 °F 37.9 °F 30 in SSW 6.3 mph 6.3 mph 96 % 0 in
01:21 39 °F 37.9 °F 30 in South 4.3 mph 6.3 mph 96 % 0 in
01:26 39 °F 37.9 °F 30 in South 1.6 mph 5.4 mph 96 % 0 in
01:31 39 °F 37.9 °F 30 in South 5.8 mph 5.8 mph 96 % 0 in
01:36 39.2 °F 38.1 °F 30 in SSW 4.9 mph 6.5 mph 96 % 0 in
01:41 39.2 °F 38.1 °F 30 in SSW 3.6 mph 6.5 mph 96 % 0 in
01:46 39.2 °F 38.1 °F 30 in SSW 4.9 mph 5.6 mph 96 % 0 in
01:51 39.2 °F 38.1 °F 30 in South 4 mph 5.8 mph 96 % 0 in
01:56 39.2 °F 38.1 °F 30 in WSW 5.4 mph 6.3 mph 96 % 0 in
02:02 32 °F 38.3 °F 0 in SSW 5.8 mph 5.8 mph 0 % 0 in
02:07 39.4 °F 38.5 °F 30 in SSW 4 mph 7.2 mph 96 % 0 in
02:12 39.6 °F 38.5 °F 30 in South 4.9 mph 7.2 mph 96 % 0 in
02:17 39.6 °F 38.5 °F 30 in SSW 3.4 mph 7.2 mph 96 % 0 in
02:22 39.4 °F 38.5 °F 30 in SW 6.5 mph 7.6 mph 96 % 0 in
02:27 39.6 °F 38.5 °F 30 in SSW 4.3 mph 8.5 mph 96 % 0 in
02:32 39.6 °F 38.5 °F 30 in SW 4.9 mph 10.1 mph 96 % 0 in
02:37 39.6 °F 38.5 °F 30 in South 5.6 mph 10.1 mph 96 % 0 in
02:42 39.6 °F 38.5 °F 30 in SSW 3.6 mph 7.4 mph 96 % 0 in
02:52 39.4 °F 38.5 °F 30 in SSW 2.9 mph 5.8 mph 96 % 0 in
02:57 39.2 °F 38.1 °F 30 in SSW 3.8 mph 5.6 mph 96 % 0 in
03:02 39 °F 37.9 °F 30 in SSW 3.8 mph 5.4 mph 96 % 0 in
03:07 39 °F 37.9 °F 30 in Calm   5.6 mph 96 % 0 in
03:12 38.7 °F 37.8 °F 30 in South 3.6 mph 5.6 mph 96 % 0 in
03:17 38.5 °F 37.6 °F 30 in South 3.8 mph 4.7 mph 96 % 0 in
03:22 38.5 °F 37.2 °F 30 in South 4 mph 5.6 mph 96 % 0 in
03:27 38.5 °F 37.2 °F 30 in South 4 mph 5.8 mph 96 % 0 in
03:37 38.5 °F 37.6 °F 30 in South 4.9 mph 7.2 mph 97 % 0 in
03:42 38.5 °F 37.8 °F 30 in SSW 4.9 mph 7.4 mph 97 % 0 in
03:47 38.7 °F 37.9 °F 30 in South 6 mph 9.4 mph 97 % 0 in
03:52 38.7 °F 37.9 °F 30 in South 5.6 mph 9.4 mph 97 % 0 in
03:57 38.5 °F 37.8 °F 30 in SSW 4 mph 8.7 mph 97 % 0 in
04:02 38.5 °F 37.8 °F 30 in SSW 4 mph 8.5 mph 97 % 0 in
04:07 38.5 °F 37.8 °F 29.9 in SSW 3.1 mph 7.8 mph 97 % 0 in
04:12 38.5 °F 37.8 °F 29.9 in SSW 4.7 mph 7.8 mph 97 % 0 in
04:17 38.5 °F 37.8 °F 29.9 in SW 2.7 mph 7.8 mph 97 % 0 in
04:22 38.5 °F 37.8 °F 30 in SSW 4 mph 6.5 mph 97 % 0 in
04:27 38.5 °F 37.8 °F 30 in South 4.3 mph 6.5 mph 97 % 0 in
04:32 38.5 °F 37.8 °F 30 in South 4 mph 5.8 mph 97 % 0 in
04:37 38.5 °F 37.6 °F 30 in WSW 7.6 mph 7.6 mph 97 % 0 in
04:42 38.5 °F 37.6 °F 30 in SSW 4.3 mph 7.6 mph 97 % 0 in
04:47 38.1 °F 37.4 °F 30 in SW 3.6 mph 6 mph 97 % 0 in
04:52 37.9 °F 37.2 °F 30 in SSW 2.5 mph 6 mph 97 % 0 in
04:57 37.9 °F 37.2 °F 30 in SSW 3.4 mph 6.9 mph 97 % 0 in
05:02 37.8 °F 37 °F 30 in SSW 4.3 mph 6.9 mph 97 % 0 in
05:07 37.8 °F 37 °F 30 in SSW 3.6 mph 6.3 mph 97 % 0 in
05:12 37.8 °F 37 °F 30 in SW 5.6 mph 5.8 mph 97 % 0 in
05:17 37.6 °F 36.9 °F 30 in SW 4 mph 5.6 mph 97 % 0 in
05:22 37.6 °F 36.7 °F 30 in SSW 2 mph 5.6 mph 97 % 0 in
05:27 37.2 °F 36.5 °F 30 in SSW 2 mph 4.3 mph 97 % 0 in
05:32 37.2 °F 36.5 °F 30 in SSW 2.9 mph 3.8 mph 97 % 0 in
05:37 36.9 °F 36.1 °F 30 in Calm   3.8 mph 97 % 0 in
05:42 36.9 °F 36.1 °F 30 in Calm   4 mph 97 % 0 in
05:47 36.9 °F 36.1 °F 30 in SSW 1.6 mph 4.9 mph 97 % 0 in
05:52 36.9 °F 36.1 °F 30 in SW 2.9 mph 4.9 mph 97 % 0 in
05:57 36.9 °F 36 °F 30 in South 3.6 mph 5.4 mph 97 % 0 in
06:02 36.9 °F 36 °F 30 in SW 2.5 mph 5.6 mph 97 % 0 in
06:07 36.9 °F 36 °F 30 in SSW 1.6 mph 5.6 mph 97 % 0 in
06:12 36.9 °F 36 °F 30 in SSW 3.6 mph 5.4 mph 97 % 0 in
06:17 36.9 °F 36 °F 30 in SW 2.7 mph 6 mph 97 % 0 in
06:22 36.9 °F 36 °F 30 in South 1.3 mph 6 mph 97 % 0 in
06:27 36.9 °F 36.3 °F 30 in SSW 4.7 mph 6.3 mph 98 % 0 in
06:32 36.9 °F 36.3 °F 30 in South 1.1 mph 7.2 mph 98 % 0 in
06:42 36.7 °F 36.1 °F 30 in South 4 mph 5.8 mph 98 % 0 in
06:47 36.7 °F 36.1 °F 30 in SW 2.9 mph 5.8 mph 98 % 0 in
06:52 36.1 °F 35.4 °F 30 in SW 3.1 mph 5.8 mph 97 % 0 in
06:57 36.1 °F 35.4 °F 30 in SSW 3.4 mph 4 mph 97 % 0 in
07:02 36.1 °F 35.4 °F 30 in SSW 4.5 mph 5.6 mph 97 % 0 in
07:07 36.1 °F 35.2 °F 30 in Calm   5.6 mph 97 % 0 in
07:12 36.1 °F 35.2 °F 30 in SSW 3.6 mph 4.7 mph 97 % 0 in
07:17 36.1 °F 35.4 °F 30 in South 7.4 mph 7.4 mph 98 % 0 in
07:22 36.1 °F 35.4 °F 30 in South 3.1 mph 7.8 mph 98 % 0 in
07:27 36.1 °F 35.8 °F 30 in SSW 8.5 mph 8.5 mph 98 % 0 in
07:32 36.1 °F 35.8 °F 30 in South 6.3 mph 8.5 mph 98 % 0 in
07:37 36.1 °F 35.4 °F 30 in SSW 5.6 mph 8.1 mph 98 % 0 in
07:42 36.1 °F 35.4 °F 30 in SSW 3.8 mph 7.8 mph 98 % 0 in
07:47 36.1 °F 35.4 °F 30 in South 2.7 mph 6.5 mph 98 % 0 in
07:52 36 °F 35.4 °F 30 in SW 5.6 mph 6.5 mph 98 % 0 in
07:57 36.1 °F 35.4 °F 30 in SSW 5.8 mph 6.3 mph 98 % 0 in
07:58 36.1 °F 35.4 °F 30 in SSW 4.3 mph 6.3 mph 98 % 0 in
08:03 36.1 °F 35.4 °F 30 in SSW 4.3 mph 7.4 mph 98 % 0 in
08:08 36.1 °F 35.8 °F 30 in South 4.3 mph 7.4 mph 98 % 0 in
08:13 36.1 °F 35.8 °F 30 in South 3.8 mph 7.6 mph 98 % 0 in
08:23 36.1 °F 35.8 °F 30 in SSW 6.5 mph 8.5 mph 98 % 0 in
08:28 36.1 °F 35.8 °F 30 in SSW 3.8 mph 8.1 mph 98 % 0 in
08:33 36.3 °F 36 °F 30 in South 4.3 mph 7.6 mph 98 % 0 in
08:38 36.3 °F 36 °F 30 in South 4 mph 7.6 mph 98 % 0 in
08:43 36.7 °F 36.1 °F 30 in SSW 5.6 mph 7.6 mph 98 % 0 in
08:48 36.3 °F 36 °F 30 in SSW 6 mph 7.8 mph 98 % 0 in
08:53 36.7 °F 36.1 °F 30 in South 6 mph 10.1 mph 98 % 0 in
09:03 36.7 °F 36.1 °F 30 in SSW 7.2 mph 7.6 mph 98 % 0 in
09:08 36.7 °F 36.1 °F 30 in SSW 4 mph 8.7 mph 98 % 0 in
09:13 36.9 °F 36.3 °F 30 in SSW 7.4 mph 8.7 mph 98 % 0 in
09:18 36.9 °F 36.3 °F 30 in SSW 6.5 mph 8.7 mph 98 % 0 in
09:23 36.9 °F 36.3 °F 30 in SSW 5.4 mph 8.7 mph 98 % 0 in
09:25 36.9 °F 36.3 °F 30 in SSW 6 mph 8.7 mph 98 % 0 in
09:30 36.9 °F 36.3 °F 30 in South 5.6 mph 8.7 mph 98 % 0 in
09:35 37 °F 36.7 °F 30 in SSW 5.6 mph 10.5 mph 98 % 0 in
09:40 37.2 °F 36.9 °F 30 in SSW 5.6 mph 10.5 mph 98 % 0 in
09:45 37.2 °F 36.9 °F 30 in South 7.8 mph 10.1 mph 98 % 0 in
09:50 37.6 °F 37 °F 30 in SSW 4.9 mph 11 mph 98 % 0 in
09:55 37.6 °F 37 °F 30 in SSW 5.6 mph 11 mph 98 % 0 in
10:00 37.6 °F 37 °F 30 in South 5.4 mph 8.7 mph 98 % 0 in
10:05 37.8 °F 37.2 °F 30 in SW 4.9 mph 10.5 mph 98 % 0 in
10:10 37.9 °F 37.6 °F 30 in South 7.8 mph 10.5 mph 98 % 0 in
10:15 38.5 °F 37.9 °F 30 in South 4.3 mph 8.9 mph 98 % 0 in
10:20 38.8 °F 38.5 °F 30 in SW 8.1 mph 10.1 mph 98 % 0 in
10:25 39.2 °F 38.7 °F 30 in SSW 9.8 mph 10.1 mph 98 % 0 in
10:30 39.4 °F 38.8 °F 30 in SSW 8.7 mph 12.8 mph 98 % 0 in
10:35 39.7 °F 39.2 °F 30 in SSW 6.7 mph 12.8 mph 98 % 0 in
10:40 40.3 °F 39.7 °F 30 in South 6 mph 13 mph 98 % 0 in
10:45 40.5 °F 39.9 °F 30 in South 5.6 mph 13 mph 98 % 0 in
10:50 41.2 °F 40.6 °F 30 in South 5.8 mph 10.7 mph 98 % 0 in
10:55 41.9 °F 41.4 °F 30 in SSW 12.8 mph 12.8 mph 98 % 0 in
11:00 41.9 °F 41.4 °F 30 in South 7.6 mph 12.8 mph 98 % 0 in
11:10 41.9 °F 41.2 °F 30 in South 10.5 mph 12.8 mph 97 % 0 in
11:15 42.1 °F 41.4 °F 30 in South 6 mph 15.2 mph 97 % 0 in
11:20 42.6 °F 41.5 °F 30 in SSW 7.2 mph 15.2 mph 96 % 0 in
11:25 43.2 °F 42.1 °F 30 in South 5.6 mph 13.9 mph 96 % 0 in
11:30 43.3 °F 42.3 °F 30 in South 10.3 mph 11 mph 96 % 0 in
11:35 43.5 °F 42.4 °F 30 in SSE 8.7 mph 13 mph 96 % 0 in
11:40 43.5 °F 42.1 °F 30 in SSW 10.5 mph 13.2 mph 94 % 0 in
11:45 43.3 °F 41.4 °F 30 in South 8.5 mph 13.4 mph 93 % 0 in
11:50 43.5 °F 41.4 °F 30 in South 8.5 mph 16.3 mph 92 % 0 in
11:55 43.9 °F 41.5 °F 30 in South 7.4 mph 16.3 mph 92 % 0 in
12:00 44.1 °F 41.5 °F 30 in SSW 6 mph 12.5 mph 91 % 0 in
12:05 44.2 °F 41.4 °F 30 in SSW 11 mph 12.5 mph 90 % 0 in
12:16 44.8 °F 41.7 °F 30 in SSW 10.3 mph 12.5 mph 89 % 0 in
12:21 44.8 °F 41.4 °F 30 in SSW 7.8 mph 14.8 mph 88 % 0 in
12:26 44.4 °F 40.8 °F 30 in SSE 9.8 mph 14.8 mph 87 % 0 in
12:31 44.4 °F 40.8 °F 30 in South 6 mph 19.5 mph 87 % 0 in
12:41 44.1 °F 40.6 °F 30 in South 10.7 mph 12.8 mph 88 % 0 in
12:46 44.4 °F 41.2 °F 30 in South 8.9 mph 11 mph 88 % 0 in
12:51 45 °F 41.5 °F 30 in SSW 10.5 mph 11 mph 88 % 0 in
12:56 45.1 °F 41.9 °F 30.1 in South 10.5 mph 10.7 mph 88 % 0 in
13:01 45.3 °F 41.7 °F 30.1 in SSW 10.7 mph 15.2 mph 87 % 0 in
13:06 45.7 °F 41.5 °F 30.1 in SSE 5.8 mph 15.2 mph 86 % 0 in
13:11 45.9 °F 41.7 °F 30 in SSW 8.1 mph 16.1 mph 86 % 0 in
13:16 45.7 °F 41.4 °F 30 in South 6 mph 16.1 mph 85 % 0 in
13:21 45.9 °F 41.5 °F 30 in South 7.6 mph 13 mph 85 % 0 in
13:31 46 °F 41.5 °F 30 in South 13 mph 13 mph 84 % 0 in
13:36 46.2 °F 41.4 °F 30 in SSW 9.8 mph 13 mph 83 % 0 in
13:41 46.6 °F 41.5 °F 30 in SW 7.8 mph 13 mph 83 % 0 in
13:46 46.8 °F 41.9 °F 30 in SSW 5.6 mph 11.9 mph 83 % 0 in
13:51 46.9 °F 42.1 °F 30 in South 6 mph 12.5 mph 83 % 0 in
13:56 46.9 °F 41.7 °F 30 in South 10.5 mph 12.5 mph 82 % 0 in
14:01 47.3 °F 42.1 °F 30 in SSW 11 mph 12.1 mph 82 % 0 in
14:06 47.3 °F 42.1 °F 30 in SSW 5.4 mph 11 mph 82 % 0 in
14:11 47.3 °F 42.1 °F 30 in SSE 7.8 mph 12.3 mph 82 % 0 in
14:16 47.3 °F 41.7 °F 30 in South 8.5 mph 12.3 mph 81 % 0 in
14:21 46.8 °F 41 °F 30 in South 8.7 mph 14.1 mph 80 % 0 in
14:26 46.8 °F 41.5 °F 30 in SSW 6.9 mph 14.1 mph 82 % 0 in
14:31 46.6 °F 41.4 °F 30 in SSW 14.3 mph 14.3 mph 82 % 0 in
14:36 46.6 °F 41.4 °F 30 in South 10.7 mph 14.3 mph 82 % 0 in
14:41 45.9 °F 40.6 °F 30 in SSW 12.3 mph 14.5 mph 82 % 0 in
14:46 45.9 °F 40.6 °F 30 in South 10.3 mph 14.5 mph 82 % 0 in
15:01 45.1 °F 40.3 °F 30 in SSW 13.9 mph 13.9 mph 83 % 0 in
15:06 45.1 °F 40.5 °F 30 in SSW 9.8 mph 13.9 mph 84 % 0 in
15:11 45.1 °F 40.8 °F 30 in SSW 7.8 mph 11.4 mph 85 % 0 in
15:16 45 °F 40.3 °F 30 in SSW 6.3 mph 11 mph 84 % 0 in
15:21 44.4 °F 39.9 °F 30 in SSW 7.4 mph 11 mph 84 % 0 in
15:26 44.1 °F 39.7 °F 30 in South 6.5 mph 13 mph 85 % 0 in
15:31 44.1 °F 39.7 °F 30 in SSW 9.6 mph 13 mph 85 % 0 in
15:36 44.1 °F 40.1 °F 30 in South 8.1 mph 11 mph 86 % 0 in
15:46 44.1 °F 40.1 °F 30 in SSW 8.5 mph 13.6 mph 86 % 0 in
15:51 44.1 °F 40.1 °F 30 in South 9.8 mph 15.4 mph 86 % 0 in
15:56 43.9 °F 39.9 °F 30 in South 8.5 mph 15.4 mph 86 % 0 in
16:01 43.5 °F 39.7 °F 30 in South 8.5 mph 14.8 mph 86 % 0 in
16:06 43.5 °F 39.6 °F 30 in SSW 10.3 mph 12.3 mph 86 % 0 in
16:13 43.2 °F 39.2 °F 30 in SSW 10.5 mph 15.2 mph 86 % 0 in
16:18 43 °F 39.4 °F 30 in South 10.7 mph 15.2 mph 87 % 0 in
16:22 42.8 °F 39.2 °F 30 in SSW 8.7 mph 13 mph 87 % 0 in
16:28 42.8 °F 39.2 °F 30 in South 7.6 mph 12.1 mph 87 % 0 in
16:32 42.8 °F 39.6 °F 30 in South 9.2 mph 11.2 mph 88 % 0 in
16:37 42.8 °F 39.6 °F 30 in SSW 8.7 mph 11 mph 88 % 0 in
16:42 42.8 °F 39.7 °F 30 in SSW 9.4 mph 13.9 mph 89 % 0 in
16:47 42.6 °F 39.6 °F 30 in SSW 12.1 mph 13.9 mph 89 % 0 in
16:53 42.6 °F 39.6 °F 30 in South 11 mph 13 mph 89 % 0 in
16:57 42.6 °F 39.9 °F 30 in South 5.4 mph 13 mph 90 % 0 in
17:02 42.4 °F 39.7 °F 30 in SSW 9.8 mph 15.2 mph 90 % 0 in
17:07 42.4 °F 39.9 °F 30 in SSE 5.6 mph 15.2 mph 91 % 0 in
17:12 42.4 °F 39.9 °F 30 in South 8.1 mph 14.5 mph 91 % 0 in
17:17 42.4 °F 39.9 °F 30 in South 8.1 mph 14.5 mph 91 % 0 in
17:23 42.4 °F 40.3 °F 30 in South 9.6 mph 13 mph 92 % 0 in
17:28 42.4 °F 40.3 °F 30 in South 10.1 mph 13 mph 92 % 0 in
17:33 42.3 °F 40.1 °F 30 in South 7.8 mph 13 mph 92 % 0 in
17:38 42.3 °F 40.1 °F 30 in South 9.8 mph 12.3 mph 92 % 0 in
17:43 42.3 °F 40.1 °F 30 in SSE 8.5 mph 15.2 mph 92 % 0 in
17:48 42.3 °F 40.5 °F 30 in South 8.1 mph 15.2 mph 93 % 0 in
17:53 42.3 °F 40.5 °F 30 in South 6 mph 13 mph 93 % 0 in
17:58 42.1 °F 40.3 °F 30 in SSE 13 mph 14.5 mph 93 % 0 in
18:03 42.1 °F 40.3 °F 30 in South 7.6 mph 15.2 mph 93 % 0 in
18:08 42.1 °F 40.3 °F 30 in SSW 10.7 mph 15.2 mph 93 % 0 in
18:13 41.9 °F 39.9 °F 30 in South 10.5 mph 13.4 mph 93 % 0 in
18:18 41.9 °F 39.9 °F 30 in South 8.1 mph 13.9 mph 93 % 0 in
18:23 41.9 °F 40.3 °F 30 in SSW 13 mph 13.9 mph 94 % 0 in
18:28 41.9 °F 40.3 °F 30 in South 14.1 mph 16.1 mph 94 % 0 in
18:33 41.9 °F 40.3 °F 30 in SSE 7.4 mph 16.1 mph 94 % 0 in
18:38 41.9 °F 40.3 °F 30 in SSW 8.5 mph 14.1 mph 94 % 0 in
18:43 41.9 °F 40.3 °F 30 in SSE 6.3 mph 15.2 mph 94 % 0 in
18:48 41.7 °F 40.5 °F 30 in South 7.8 mph 15.2 mph 95 % 0 in
18:53 41.7 °F 40.5 °F 29.9 in South 10.1 mph 13.6 mph 95 % 0 in
18:58 41.7 °F 40.5 °F 29.9 in South 6.3 mph 12.5 mph 95 % 0 in
19:03 41.7 °F 40.6 °F 29.9 in SSW 6.5 mph 13.2 mph 96 % 0 in
19:08 41.7 °F 40.6 °F 30 in SSW 10.5 mph 13.2 mph 96 % 0 in
19:13 41.7 °F 40.6 °F 30 in South 6.7 mph 14.3 mph 96 % 0 in
19:18 41.9 °F 40.8 °F 30 in South 9.8 mph 14.3 mph 96 % 0 in
19:23 41.9 °F 41.2 °F 29.9 in South 8.7 mph 15.2 mph 97 % 0.01 in
19:28 41.9 °F 41.2 °F 29.9 in SSW 7.4 mph 15.2 mph 97 % 0.01 in
19:33 41.9 °F 41.2 °F 29.9 in South 5.4 mph 14.1 mph 97 % 0.01 in
19:38 41.9 °F 41.2 °F 30 in SSW 10.1 mph 12.8 mph 97 % 0.03 in
19:43 41.9 °F 41.2 °F 30 in South 7.6 mph 13.6 mph 97 % 0.03 in
19:48 41.9 °F 41.2 °F 30 in SSE 12.8 mph 13.6 mph 97 % 0.04 in
19:53 41.9 °F 41.2 °F 30 in South 8.5 mph 15.7 mph 97 % 0.04 in
19:58 41.9 °F 41.2 °F 30 in SSE 10.7 mph 15.7 mph 97 % 0.05 in
20:03 41.9 °F 41.2 °F 30 in South 7.8 mph 13.2 mph 97 % 0.05 in
20:08 41.9 °F 41.2 °F 30 in SSE 10.7 mph 14.3 mph 97 % 0.06 in
20:13 41.9 °F 41.4 °F 30 in SSW 8.1 mph 14.3 mph 98 % 0.06 in
20:18 42.1 °F 41.5 °F 30 in South 7.4 mph 17.7 mph 98 % 0.06 in
20:23 42.1 °F 41.5 °F 30 in SSW 8.7 mph 17.7 mph 98 % 0.07 in
20:28 42.1 °F 41.5 °F 30 in SSW 10.5 mph 14.3 mph 98 % 0.07 in
20:33 42.1 °F 41.5 °F 30 in SSE 8.7 mph 16.1 mph 98 % 0.08 in
20:43 42.3 °F 41.7 °F 29.9 in South 9.6 mph 19.5 mph 98 % 0.08 in
20:48 42.3 °F 41.7 °F 29.9 in South 12.3 mph 17.2 mph 98 % 0.07 in
20:53 42.3 °F 41.7 °F 29.9 in SSE 15.9 mph 17.2 mph 98 % 0.08 in
20:58 42.3 °F 41.7 °F 29.9 in SSW 7.8 mph 15.9 mph 98 % 0.07 in
21:03 42.3 °F 41.7 °F 29.9 in South 4 mph 15.9 mph 98 % 0.07 in
21:08 42.3 °F 41.7 °F 29.9 in SSE 6.3 mph 23.5 mph 98 % 0.07 in
21:13 42.4 °F 41.9 °F 29.9 in South 11 mph 23.5 mph 98 % 0.07 in
21:18 42.4 °F 41.9 °F 29.9 in SSE 10.1 mph 22.1 mph 98 % 0.07 in
21:23 42.6 °F 41.7 °F 29.9 in SSE 7.4 mph 15.2 mph 97 % 0.06 in
21:33 42.6 °F 41.7 °F 29.9 in South 7.8 mph 16.8 mph 97 % 0.06 in
21:38 42.6 °F 41.7 °F 29.9 in South 7.6 mph 16.8 mph 97 % 0.06 in
21:43 42.8 °F 42.1 °F 29.9 in South 9.8 mph 14.8 mph 97 % 0.06 in
21:48 42.8 °F 42.1 °F 29.9 in SSW 12.3 mph 16.8 mph 97 % 0.07 in
21:53 42.8 °F 42.3 °F 29.9 in SSW 7.8 mph 16.8 mph 98 % 0.06 in
21:58 42.8 °F 42.3 °F 29.9 in South 20.1 mph 21.9 mph 98 % 0.07 in
22:03 42.8 °F 42.3 °F 29.9 in SSE 13.2 mph 21.9 mph 98 % 0.06 in
22:08 42.8 °F 42.3 °F 29.9 in South 14.5 mph 17 mph 98 % 0.07 in
22:13 42.8 °F 42.3 °F 29.9 in SSW 6.7 mph 18.1 mph 98 % 0.07 in
22:18 42.8 °F 42.3 °F 29.9 in South 10.1 mph 18.1 mph 98 % 0.07 in
22:23 42.8 °F 42.3 °F 29.9 in South 7.8 mph 17 mph 98 % 0.07 in
22:28 42.8 °F 42.3 °F 29.9 in South 14.3 mph 15.2 mph 98 % 0.07 in
22:33 42.8 °F 42.3 °F 29.9 in South 8.9 mph 14.3 mph 98 % 0.06 in
22:43 42.8 °F 42.3 °F 29.9 in SSW 8.9 mph 19.2 mph 98 % 0.07 in
22:48 43 °F 42.4 °F 29.9 in SSW 11 mph 16.1 mph 98 % 0.06 in
22:53 43 °F 42.4 °F 29.9 in South 14.8 mph 15.7 mph 98 % 0.06 in
22:58 43.2 °F 42.6 °F 29.9 in SSW 16.1 mph 16.1 mph 98 % 0.07 in
23:03 43.2 °F 42.6 °F 29.9 in South 12.3 mph 17.2 mph 98 % 0.07 in
23:08 43.3 °F 42.8 °F 29.9 in SSW 12.8 mph 19.7 mph 98 % 0.06 in
23:13 43.3 °F 42.8 °F 29.9 in SSW 17.4 mph 19.7 mph 98 % 0.06 in
23:18 43.5 °F 43 °F 29.9 in SSW 17.7 mph 17.7 mph 98 % 0.06 in
23:23 43.5 °F 43 °F 29.9 in South 12.5 mph 18.6 mph 98 % 0.05 in
23:28 43.5 °F 43 °F 29.9 in SSW 12.5 mph 18.6 mph 98 % 0.08 in
23:33 43.5 °F 43 °F 29.9 in South 10.7 mph 17.7 mph 98 % 0.08 in
23:38 43.5 °F 43 °F 29.9 in SSW 13.9 mph 17.7 mph 98 % 0.07 in
23:43 43.5 °F 43 °F 29.9 in SSW 8.7 mph 17 mph 98 % 0.06 in
23:48 43.5 °F 43 °F 29.9 in SSW 9.4 mph 17 mph 98 % 0.06 in
23:53 43.5 °F 43.2 °F 29.9 in South 17.9 mph 17.9 mph 98 % 0.06 in
Le Gheer Warneton
Courtoisie de Weather Underground - 2.25 mb

Mise a jour : 17-12-17 03:21:12
Généré par Cumulus 1.9.4 (1099)